Cumberland, WV

12:16 AM EDT on July 23, 2017 (GMT -0400)
Greater Cumberland Regional

Weather History for KCBE - October, 2013

Change the Weather History Date:

Monday, October 28, 2013

  Actual Average (KMRB) Record (KMRB)
Temperature  
Mean Temperature 46 °F -  
Max Temperature 62 °F 63 °F 84 °F (2014)
Min Temperature 30 °F 39 °F 24 °F (1926)
Degree Days  
Heating Degree Days 19    
Moisture  
Dew Point 34 °F    
Average Humidity 71    
Maximum Humidity 100    
Minimum Humidity 34    
Precipitation  
Precipitation 0.00 in - - ()
Sea Level Pressure  
Sea Level Pressure 30.25 in    
Wind  
Wind Speed 1 mph (WNW)    
Max Wind Speed 6 mph    
Max Gust Speed -    
Visibility 10 miles    
Events      
Averages and records for this station are not official NWS values.
T = Trace of Precipitation, MM = Missing Value Source: NWS Daily Summary

Daily Weather History Graph

Daily Weather History Graph

Search for Another Location

Airport or City:

Trip Planner

Search our weather history database for the weather conditions in past years. The results will help you decide how hot, cold, wet, or windy it might be!

Date:

Astronomy

Oct. 28, 2013 Rise Set
Actual Time 7:39 AM EDT 6:17 PM EDT
Civil Twilight 7:11 AM EDT 6:45 PM EDT
Nautical Twilight 6:39 AM EDT 7:17 PM EDT
Astronomical Twilight 6:08 AM EDT 7:48 PM EDT
Moon 1:31 AM EDT (10/28) 2:57 PM EDT (10/28)
Length of Visible Light 11h 33m
Length of Day
10h 38m
Waning Crescent, 34% of the Moon is Illuminated
Oct 28
Waning Crescent
Nov 3
New
Nov 10
First Quarter
Nov 17
Full
Nov 25
Last Quarter

Hourly Weather History & Observations

Time (EDT) Temp. Windchill Dew Point Humidity Pressure Visibility Wind Dir Wind Speed Gust Speed Precip Events Conditions
12:02 AM 37.4 °F 33.8 °F 32.0 °F 81% 30.17 in 10.0 mi North 4.6 mph - N/A   Clear
12:22 AM 35.6 °F - 32.0 °F 87% 30.18 in 10.0 mi Calm Calm - N/A   Clear
12:42 AM 35.6 °F - 32.0 °F 87% 30.18 in 10.0 mi Calm Calm - N/A   Clear
1:02 AM 35.6 °F - 32.0 °F 87% 30.18 in 10.0 mi Calm Calm - N/A   Clear
1:22 AM 35.6 °F - 32.0 °F 87% 30.18 in 10.0 mi Calm Calm - N/A   Clear
1:42 AM 35.6 °F - 32.0 °F 87% 30.18 in 10.0 mi Calm Calm - N/A   Clear
2:02 AM 33.8 °F - 32.0 °F 93% 30.18 in 10.0 mi Calm Calm - N/A   Clear
2:22 AM 33.8 °F - 32.0 °F 93% 30.18 in 10.0 mi Calm Calm - N/A   Clear
2:42 AM 33.8 °F - 32.0 °F 93% 30.19 in 10.0 mi Calm Calm - N/A   Clear
3:02 AM 33.8 °F - 32.0 °F 93% 30.18 in 10.0 mi Calm Calm - N/A   Clear
3:22 AM 32.0 °F - 32.0 °F 100% 30.19 in 10.0 mi Calm Calm - N/A   Clear
3:42 AM 32.0 °F - 32.0 °F 100% 30.19 in 7.0 mi Calm Calm - N/A   Clear
4:02 AM 32.0 °F - 32.0 °F 100% 30.20 in 10.0 mi Calm Calm - N/A   Clear
4:22 AM 32.0 °F - 32.0 °F 100% 30.20 in 10.0 mi Calm Calm - N/A   Clear
4:42 AM 32.0 °F - 32.0 °F 100% 30.20 in 10.0 mi Calm Calm - N/A   Clear
5:02 AM 32.0 °F - 32.0 °F 100% 30.20 in 10.0 mi Calm Calm - N/A   Clear
5:22 AM 32.0 °F - 32.0 °F 100% 30.22 in 10.0 mi Calm Calm - N/A   Clear
5:42 AM 32.0 °F - 32.0 °F 100% 30.23 in 10.0 mi Calm Calm - N/A   Clear
6:02 AM 32.0 °F - 30.2 °F 93% 30.24 in 5.0 mi Calm Calm - N/A   Clear
6:22 AM 32.0 °F - 30.2 °F 93% 30.24 in 7.0 mi Calm Calm - N/A   Clear
6:42 AM 32.0 °F - 30.2 °F 93% 30.25 in 10.0 mi Calm Calm - N/A   Clear
7:02 AM 32.0 °F - 30.2 °F 93% 30.25 in 5.0 mi Calm Calm - N/A   Clear
7:22 AM 32.0 °F - 32.0 °F 100% 30.25 in 10.0 mi Calm Calm - N/A   Clear
7:43 AM 30.2 °F - 30.2 °F 100% 30.26 in 7.0 mi Calm Calm - N/A   Clear
8:03 AM 32.0 °F - 30.2 °F 93% 30.27 in 10.0 mi Calm Calm - N/A   Clear
8:23 AM 32.0 °F - 32.0 °F 100% 30.28 in 7.0 mi Calm Calm - N/A   Clear
8:43 AM 32.0 °F - 32.0 °F 100% 30.29 in 7.0 mi Calm Calm - N/A   Clear
9:03 AM 33.8 °F - 33.8 °F 100% 30.30 in 10.0 mi Calm Calm - N/A   Clear
9:23 AM 35.6 °F - 33.8 °F 93% 30.30 in 10.0 mi Calm Calm - N/A   Clear
9:43 AM 37.4 °F - 33.8 °F 87% 30.31 in 10.0 mi Calm Calm - N/A   Clear
10:03 AM 41.0 °F - 33.8 °F 76% 30.31 in 10.0 mi Calm Calm - N/A   Clear
10:23 AM 41.0 °F - 33.8 °F 76% 30.31 in 10.0 mi Calm Calm - N/A   Clear
10:43 AM 42.8 °F - 33.8 °F 70% 30.31 in 10.0 mi Calm Calm - N/A   Clear
11:03 AM 46.4 °F - 33.8 °F 62% 30.31 in 10.0 mi Calm Calm - N/A   Clear
11:23 AM 46.4 °F - 35.6 °F 66% 30.30 in 10.0 mi Calm Calm - N/A   Clear
11:43 AM 50.0 °F - 35.6 °F 58% 30.30 in 10.0 mi South 3.5 mph - N/A   Clear
12:03 PM 51.8 °F - 35.6 °F 54% 30.30 in 10.0 mi SSW 3.5 mph - N/A   Clear
12:23 PM 51.8 °F - 35.6 °F 54% 30.29 in 10.0 mi South 3.5 mph - N/A   Clear
12:43 PM 53.6 °F - 35.6 °F 51% 30.28 in 10.0 mi Calm Calm - N/A   Clear
1:03 PM 55.4 °F - 35.6 °F 47% 30.27 in 10.0 mi Calm Calm - N/A   Clear
1:23 PM 55.4 °F - 35.6 °F 47% 30.26 in 10.0 mi Calm Calm - N/A   Clear
1:43 PM 55.4 °F - 35.6 °F 47% 30.25 in 10.0 mi Calm Calm - N/A   Clear
2:03 PM 57.2 °F - 35.6 °F 44% 30.25 in 10.0 mi Calm Calm - N/A   Clear
2:23 PM 59.0 °F - 33.8 °F 39% 30.25 in 10.0 mi Calm Calm - N/A   Clear
2:43 PM 59.0 °F - 35.6 °F 42% 30.24 in 10.0 mi Calm Calm - N/A   Clear
3:03 PM 60.8 °F - 35.6 °F 39% 30.24 in 10.0 mi Calm Calm - N/A   Clear
3:23 PM 60.8 °F - 33.8 °F 36% 30.24 in 10.0 mi Calm Calm - N/A   Clear
3:43 PM 62.6 °F - 33.8 °F 34% 30.23 in 10.0 mi Calm Calm - N/A   Clear
4:03 PM 62.6 °F - 35.6 °F 37% 30.24 in 10.0 mi SW 3.5 mph - N/A   Clear
4:24 PM 62.6 °F - 33.8 °F 34% 30.24 in 10.0 mi WSW 3.5 mph - N/A   Clear
4:44 PM 62.6 °F - 33.8 °F 34% 30.24 in 10.0 mi SW 3.5 mph - N/A   Clear
5:04 PM 60.8 °F - 33.8 °F 36% 30.24 in 10.0 mi Calm Calm - N/A   Clear
5:24 PM 60.8 °F - 33.8 °F 36% 30.24 in 10.0 mi Calm Calm - N/A   Clear
5:44 PM 59.0 °F - 35.6 °F 42% 30.24 in 10.0 mi Calm Calm - N/A   Clear
6:04 PM 59.0 °F - 33.8 °F 39% 30.25 in 10.0 mi Calm Calm - N/A   Clear
6:24 PM 57.2 °F - 33.8 °F 41% 30.25 in 10.0 mi Calm Calm - N/A   Clear
6:44 PM 55.4 °F - 33.8 °F 44% 30.26 in 10.0 mi Calm Calm - N/A   Clear
7:04 PM 53.6 °F - 33.8 °F 47% 30.27 in 10.0 mi Calm Calm - N/A   Clear
7:24 PM 53.6 °F - 35.6 °F 51% 30.27 in 10.0 mi Calm Calm - N/A   Clear
7:44 PM 51.8 °F - 35.6 °F 54% 30.28 in 10.0 mi NNW 3.5 mph - N/A   Clear
8:04 PM 51.8 °F - 37.4 °F 58% 30.29 in 10.0 mi North 4.6 mph - N/A   Clear
8:24 PM 50.0 °F - 35.6 °F 58% 30.29 in 10.0 mi North 5.8 mph - N/A   Clear
8:44 PM 50.0 °F - 35.6 °F 58% 30.29 in 10.0 mi North 4.6 mph - N/A   Clear
9:04 PM 48.2 °F - 37.4 °F 66% 30.30 in 10.0 mi North 3.5 mph - N/A   Clear
9:24 PM 48.2 °F - 37.4 °F 66% 30.30 in 10.0 mi Calm Calm - N/A   Clear
9:44 PM 44.6 °F - 35.6 °F 71% 30.31 in 10.0 mi Calm Calm - N/A   Clear
10:04 PM 44.6 °F - 37.4 °F 76% 30.32 in 10.0 mi Calm Calm - N/A   Clear
10:24 PM 44.6 °F - 37.4 °F 76% 30.32 in 10.0 mi Calm Calm - N/A   Clear
10:44 PM 42.8 °F - 37.4 °F 81% 30.32 in 10.0 mi Calm Calm - N/A   Clear
11:04 PM 42.8 °F - 35.6 °F 76% 30.32 in 10.0 mi Calm Calm - N/A   Clear
11:24 PM 41.0 °F - 35.6 °F 81% 30.32 in 10.0 mi Calm Calm - N/A   Clear
11:44 PM 41.0 °F - 35.6 °F 81% 30.33 in 10.0 mi Calm Calm - N/A   Clear